Time,TemperatureF,DewpointF,PressureIn,WindDirection,WindDirectionDegrees,WindSpeedMPH,WindSpeedGustMPH,Humidity,HourlyPrecipIn,Conditions,Clouds,dailyrainin,SoftwareType,DateUTC
2013-07-12 00:03:00,77.9,62.4,28.41,NNW,340,0.0,0.0,59,0.00,,---,0.00,VWS V14.01,2013-07-12 05:03:00,
2013-07-12 00:08:00,77.9,62.0,28.41,South,175,0.0,3.6,58,0.00,,---,0.00,VWS V14.01,2013-07-12 05:08:00,
2013-07-12 00:13:00,77.9,62.0,28.41,North,357,0.0,5.8,58,0.00,,---,0.00,VWS V14.01,2013-07-12 05:13:00,
2013-07-12 00:19:00,77.7,61.8,28.41,WNW,300,0.0,5.8,58,0.00,,---,0.00,VWS V14.01,2013-07-12 05:19:00,
2013-07-12 00:24:00,77.5,61.6,28.41,NNE,20,2.7,5.8,58,0.00,,---,0.00,VWS V14.01,2013-07-12 05:24:00,
2013-07-12 00:29:00,77.5,61.6,28.41,NNE,18,0.0,5.8,58,0.00,,---,0.00,VWS V14.01,2013-07-12 05:29:00,
2013-07-12 00:34:00,77.2,61.3,28.41,ENE,65,0.0,5.8,58,0.00,,---,0.00,VWS V14.01,2013-07-12 05:34:00,
2013-07-12 00:39:00,77.2,61.3,28.41,SE,126,0.0,5.8,58,0.00,,---,0.00,VWS V14.01,2013-07-12 05:39:00,
2013-07-12 00:44:00,77.2,60.8,28.41,NNW,341,0.0,5.8,57,0.00,,---,0.00,VWS V14.01,2013-07-12 05:44:00,
2013-07-12 00:49:00,77.0,60.6,28.41,SSE,160,0.0,5.8,57,0.00,,---,0.00,VWS V14.01,2013-07-12 05:49:00,
2013-07-12 00:55:00,77.0,60.6,28.41,NE,41,0.0,5.8,57,0.00,,---,0.00,VWS V14.01,2013-07-12 05:55:00,
2013-07-12 01:00:00,76.8,60.9,28.41,NNW,330,0.0,0.0,58,0.00,,---,0.00,VWS V14.01,2013-07-12 06:00:00,
2013-07-12 01:05:00,76.6,60.8,28.41,South,174,0.0,4.0,58,0.00,,---,0.00,VWS V14.01,2013-07-12 06:05:00,
2013-07-12 01:11:00,76.5,60.6,28.41,SE,138,5.4,5.4,58,0.00,,---,0.00,VWS V14.01,2013-07-12 06:11:00,
2013-07-12 01:16:00,76.3,60.4,28.41,SSE,160,0.0,5.8,58,0.00,,---,0.00,VWS V14.01,2013-07-12 06:16:00,
2013-07-12 01:21:00,76.3,60.4,28.41,SSE,157,5.4,5.8,58,0.00,,---,0.00,VWS V14.01,2013-07-12 06:21:00,
2013-07-12 01:26:00,76.1,60.3,28.41,South,169,0.0,5.8,58,0.00,,---,0.00,VWS V14.01,2013-07-12 06:26:00,
2013-07-12 01:31:00,75.9,60.1,28.41,NE,56,2.2,5.8,58,0.00,,---,0.00,VWS V14.01,2013-07-12 06:31:00,
2013-07-12 01:36:00,75.7,59.9,28.41,SSE,161,0.0,5.8,58,0.00,,---,0.00,VWS V14.01,2013-07-12 06:36:00,
2013-07-12 01:41:00,75.6,59.8,28.41,SSW,207,3.1,5.8,58,0.00,,---,0.00,VWS V14.01,2013-07-12 06:41:00,
2013-07-12 01:46:00,75.6,59.8,28.41,SE,146,3.6,5.8,58,0.00,,---,0.00,VWS V14.01,2013-07-12 06:46:00,
2013-07-12 01:52:00,75.4,59.6,28.41,SE,138,2.7,5.8,58,0.00,,---,0.00,VWS V14.01,2013-07-12 06:52:00,
2013-07-12 01:57:00,75.4,59.6,28.41,SE,138,2.7,5.8,58,0.00,,---,0.00,VWS V14.01,2013-07-12 06:57:00,
2013-07-12 02:02:00,75.4,59.6,28.41,SSE,160,2.7,5.4,58,0.00,,---,0.00,VWS V14.01,2013-07-12 07:02:00,
2013-07-12 02:07:00,75.4,59.6,28.41,SE,132,3.1,5.8,58,0.00,,---,0.00,VWS V14.01,2013-07-12 07:07:00,
2013-07-12 02:12:00,75.2,58.9,28.41,South,181,2.7,5.8,57,0.00,,---,0.00,VWS V14.01,2013-07-12 07:12:00,
2013-07-12 02:17:00,75.2,58.9,28.41,SE,138,2.7,5.8,57,0.00,,---,0.00,VWS V14.01,2013-07-12 07:17:00,
2013-07-12 02:22:00,75.2,58.9,28.41,SSE,147,2.7,5.8,57,0.00,,---,0.00,VWS V14.01,2013-07-12 07:22:00,
2013-07-12 02:27:00,75.0,59.3,28.41,SSW,205,2.7,5.8,58,0.00,,---,0.00,VWS V14.01,2013-07-12 07:27:00,
2013-07-12 02:32:00,75.0,59.3,28.41,South,177,0.0,5.8,58,0.00,,---,0.00,VWS V14.01,2013-07-12 07:32:00,
2013-07-12 02:38:00,75.0,59.3,28.38,SE,135,3.1,5.8,58,0.00,,---,0.00,VWS V14.01,2013-07-12 07:38:00,
2013-07-12 02:43:00,74.8,59.1,28.38,SE,140,3.6,5.8,58,0.00,,---,0.00,VWS V14.01,2013-07-12 07:43:00,
2013-07-12 02:48:00,74.8,59.1,28.38,SE,145,2.7,5.8,58,0.00,,---,0.00,VWS V14.01,2013-07-12 07:48:00,
2013-07-12 02:53:00,74.8,59.1,28.38,SSE,157,0.0,5.8,58,0.00,,---,0.00,VWS V14.01,2013-07-12 07:53:00,
2013-07-12 02:58:00,74.7,58.9,28.38,South,186,0.0,5.8,58,0.00,,---,0.00,VWS V14.01,2013-07-12 07:58:00,
2013-07-12 03:03:00,74.7,58.9,28.38,SSE,155,2.7,3.6,58,0.00,,---,0.00,VWS V14.01,2013-07-12 08:03:00,
2013-07-12 03:08:00,74.5,59.2,28.38,SE,138,3.6,3.6,59,0.00,,---,0.00,VWS V14.01,2013-07-12 08:08:00,
2013-07-12 03:13:00,74.3,59.1,28.38,SSE,156,2.7,3.6,59,0.00,,---,0.00,VWS V14.01,2013-07-12 08:13:00,
2013-07-12 03:18:00,74.3,59.1,28.38,SSE,156,0.0,3.6,59,0.00,,---,0.00,VWS V14.01,2013-07-12 08:18:00,
2013-07-12 03:24:00,74.1,58.9,28.38,SSW,192,4.0,4.0,59,0.00,,---,0.00,VWS V14.01,2013-07-12 08:24:00,
2013-07-12 03:29:00,73.9,59.2,28.38,SSE,156,3.1,5.4,60,0.00,,---,0.00,VWS V14.01,2013-07-12 08:29:00,
2013-07-12 03:34:00,73.8,59.0,28.38,SSE,156,0.0,5.4,60,0.00,,---,0.00,VWS V14.01,2013-07-12 08:34:00,
2013-07-12 03:39:00,73.8,59.0,28.38,SSE,154,0.0,5.4,60,0.00,,---,0.00,VWS V14.01,2013-07-12 08:39:00,
2013-07-12 03:44:00,73.8,59.0,28.38,SSE,167,0.0,5.4,60,0.00,,---,0.00,VWS V14.01,2013-07-12 08:44:00,
2013-07-12 03:49:00,73.8,59.0,28.38,ESE,105,0.0,5.4,60,0.00,,---,0.00,VWS V14.01,2013-07-12 08:49:00,
2013-07-12 03:54:00,73.9,59.2,28.41,SE,145,0.0,5.4,60,0.00,,---,0.00,VWS V14.01,2013-07-12 08:54:00,
2013-07-12 03:59:00,73.9,59.2,28.41,SSW,194,0.0,5.4,60,0.00,,---,0.00,VWS V14.01,2013-07-12 08:59:00,
2013-07-12 04:04:00,73.8,59.0,28.41,SSE,149,0.0,5.4,60,0.00,,---,0.00,VWS V14.01,2013-07-12 09:04:00,
2013-07-12 04:10:00,73.8,59.0,28.41,South,173,3.1,5.4,60,0.00,,---,0.00,VWS V14.01,2013-07-12 09:10:00,
2013-07-12 04:15:00,73.6,58.8,28.41,SSW,208,0.0,5.4,60,0.00,,---,0.00,VWS V14.01,2013-07-12 09:15:00,
2013-07-12 04:20:00,73.4,59.2,28.41,SE,139,0.0,5.4,61,0.00,,---,0.00,VWS V14.01,2013-07-12 09:20:00,
2013-07-12 04:25:00,73.2,59.0,28.41,WSW,250,0.0,5.4,61,0.00,,---,0.00,VWS V14.01,2013-07-12 09:25:00,
2013-07-12 04:30:00,73.0,59.3,28.41,SSE,158,2.7,5.4,62,0.00,,---,0.00,VWS V14.01,2013-07-12 09:30:00,
2013-07-12 04:35:00,72.9,59.1,28.41,SSE,151,0.0,5.4,62,0.00,,---,0.00,VWS V14.01,2013-07-12 09:35:00,
2013-07-12 04:40:00,72.9,59.1,28.38,SSW,199,2.7,5.4,62,0.00,,---,0.00,VWS V14.01,2013-07-12 09:40:00,
2013-07-12 04:45:00,72.7,58.9,28.38,SE,145,4.0,5.4,62,0.00,,---,0.00,VWS V14.01,2013-07-12 09:45:00,
2013-07-12 04:50:00,72.7,59.4,28.38,NW,319,0.0,5.4,63,0.00,,---,0.00,VWS V14.01,2013-07-12 09:50:00,
2013-07-12 04:56:00,72.5,59.2,28.38,NNW,332,0.0,5.4,63,0.00,,---,0.00,VWS V14.01,2013-07-12 09:56:00,
2013-07-12 05:01:00,72.3,59.0,28.38,SSE,154,0.0,0.0,63,0.00,,---,0.00,VWS V14.01,2013-07-12 10:01:00,
2013-07-12 05:06:00,72.1,58.9,28.38,SSE,154,0.0,0.0,63,0.00,,---,0.00,VWS V14.01,2013-07-12 10:06:00,
2013-07-12 05:11:00,72.1,59.3,28.38,SSW,203,0.0,2.7,64,0.00,,---,0.00,VWS V14.01,2013-07-12 10:11:00,
2013-07-12 05:16:00,72.0,59.1,28.38,ENE,62,0.0,3.6,64,0.00,,---,0.00,VWS V14.01,2013-07-12 10:16:00,
2013-07-12 05:21:00,71.8,59.0,28.38,ENE,62,0.0,3.6,64,0.00,,---,0.00,VWS V14.01,2013-07-12 10:21:00,
2013-07-12 05:26:00,71.8,59.4,28.38,ENE,64,0.0,3.6,65,0.00,,---,0.00,VWS V14.01,2013-07-12 10:26:00,
2013-07-12 05:31:00,71.8,59.4,28.38,ENE,61,0.0,3.6,65,0.00,,---,0.00,VWS V14.01,2013-07-12 10:31:00,
2013-07-12 05:37:00,71.8,59.8,28.38,North,0,0.0,3.6,66,0.00,,---,0.00,VWS V14.01,2013-07-12 10:37:00,
2013-07-12 05:42:00,71.8,59.8,28.38,ENE,75,0.0,3.6,66,0.00,,---,0.00,VWS V14.01,2013-07-12 10:42:00,
2013-07-12 05:47:00,71.8,59.8,28.38,ENE,76,3.6,4.0,66,0.00,,---,0.00,VWS V14.01,2013-07-12 10:47:00,
2013-07-12 05:52:00,71.8,59.4,28.38,NNW,344,2.2,4.9,65,0.00,,---,0.00,VWS V14.01,2013-07-12 10:52:00,
2013-07-12 05:57:00,71.8,59.4,28.38,NE,39,0.0,4.9,65,0.00,,---,0.00,VWS V14.01,2013-07-12 10:57:00,
2013-07-12 06:02:00,72.0,59.6,28.38,NE,49,0.0,2.7,65,0.00,,---,0.00,VWS V14.01,2013-07-12 11:02:00,
2013-07-12 06:07:00,71.8,59.4,28.38,North,0,0.0,4.0,65,0.00,,---,0.00,VWS V14.01,2013-07-12 11:07:00,
2013-07-12 06:13:00,71.8,59.4,28.38,North,3,0.0,4.0,65,0.00,,---,0.00,VWS V14.01,2013-07-12 11:13:00,
2013-07-12 06:18:00,71.6,59.2,28.38,SSE,157,0.0,4.0,65,0.00,,---,0.00,VWS V14.01,2013-07-12 11:18:00,
2013-07-12 06:23:00,71.6,59.2,28.38,SW,229,0.0,6.3,65,0.00,,---,0.00,VWS V14.01,2013-07-12 11:23:00,
2013-07-12 06:28:00,71.6,59.2,28.38,WSW,258,2.7,6.3,65,0.00,,---,0.00,VWS V14.01,2013-07-12 11:28:00,
2013-07-12 06:33:00,71.6,59.2,28.38,SSW,203,0.0,6.3,65,0.00,,---,0.00,VWS V14.01,2013-07-12 11:33:00,
2013-07-12 06:38:00,71.6,59.7,28.38,SSE,151,0.0,6.3,66,0.00,,---,0.00,VWS V14.01,2013-07-12 11:38:00,
2013-07-12 06:43:00,71.6,59.7,28.38,SE,127,2.2,6.3,66,0.00,,---,0.00,VWS V14.01,2013-07-12 11:43:00,
2013-07-12 06:48:00,71.6,59.7,28.38,SSE,168,0.0,6.3,66,0.00,,---,0.00,VWS V14.01,2013-07-12 11:48:00,
2013-07-12 06:53:00,71.6,59.7,28.38,SSE,168,0.0,6.3,66,0.00,,---,0.00,VWS V14.01,2013-07-12 11:53:00,
2013-07-12 06:59:00,71.6,59.7,28.38,South,172,0.0,6.3,66,0.00,,---,0.00,VWS V14.01,2013-07-12 11:59:00,
2013-07-12 07:04:00,71.8,59.8,28.38,SSE,166,2.7,4.9,66,0.00,,---,0.00,VWS V14.01,2013-07-12 12:04:00,
2013-07-12 07:09:00,71.8,59.8,28.38,SSE,164,0.0,4.9,66,0.00,,---,0.00,VWS V14.01,2013-07-12 12:09:00,
2013-07-12 07:14:00,72.0,60.0,28.38,SSE,158,3.1,4.9,66,0.00,,---,0.00,VWS V14.01,2013-07-12 12:14:00,
2013-07-12 07:19:00,72.1,60.2,28.38,South,173,0.0,4.9,66,0.00,,---,0.00,VWS V14.01,2013-07-12 12:19:00,
2013-07-12 07:24:00,72.3,60.3,28.41,North,5,2.2,4.9,66,0.00,,---,0.00,VWS V14.01,2013-07-12 12:24:00,
2013-07-12 07:29:00,72.5,60.5,28.41,North,357,3.1,4.9,66,0.00,,---,0.00,VWS V14.01,2013-07-12 12:29:00,
2013-07-12 07:34:00,72.7,60.7,28.41,North,353,0.0,4.9,66,0.00,,---,0.00,VWS V14.01,2013-07-12 12:34:00,
2013-07-12 07:40:00,73.0,61.0,28.41,SSW,192,0.0,6.3,66,0.00,,---,0.00,VWS V14.01,2013-07-12 12:40:00,
2013-07-12 07:45:00,73.4,60.5,28.41,ESE,102,3.1,10.1,64,0.00,,---,0.00,VWS V14.01,2013-07-12 12:45:00,
2013-07-12 07:50:00,74.1,61.2,28.41,NE,45,2.7,10.1,64,0.00,,---,0.00,VWS V14.01,2013-07-12 12:50:00,
2013-07-12 07:55:00,74.8,61.0,28.41,South,171,5.4,10.1,62,0.00,,---,0.00,VWS V14.01,2013-07-12 12:55:00,
2013-07-12 08:00:00,75.6,61.2,28.41,ESE,121,0.0,4.0,61,0.00,,---,0.00,VWS V14.01,2013-07-12 13:00:00,
2013-07-12 08:05:00,76.3,60.9,28.41,SSE,152,2.7,4.0,59,0.00,,---,0.00,VWS V14.01,2013-07-12 13:05:00,
2013-07-12 08:10:00,76.6,60.8,28.41,NNW,328,2.7,4.0,58,0.00,,---,0.00,VWS V14.01,2013-07-12 13:10:00,
2013-07-12 08:15:00,77.2,60.8,28.41,NNW,330,0.0,4.0,57,0.00,,---,0.00,VWS V14.01,2013-07-12 13:15:00,
2013-07-12 08:20:00,77.5,60.6,28.41,NW,319,2.7,4.0,56,0.00,,---,0.00,VWS V14.01,2013-07-12 13:20:00,
2013-07-12 08:26:00,77.9,61.0,28.38,WSW,255,2.2,4.0,56,0.00,,---,0.00,VWS V14.01,2013-07-12 13:26:00,
2013-07-12 08:31:00,78.6,61.6,28.38,SSE,157,3.1,4.0,56,0.00,,---,0.00,VWS V14.01,2013-07-12 13:31:00,
2013-07-12 08:36:00,79.2,61.1,28.38,WSW,257,2.2,5.8,54,0.00,,---,0.00,VWS V14.01,2013-07-12 13:36:00,
2013-07-12 08:41:00,79.7,61.6,28.41,North,350,0.0,5.8,54,0.00,,---,0.00,VWS V14.01,2013-07-12 13:41:00,
2013-07-12 08:46:00,80.2,61.6,28.41,NW,315,3.1,5.8,53,0.00,,---,0.00,VWS V14.01,2013-07-12 13:46:00,
2013-07-12 08:51:00,80.6,61.4,28.41,WNW,288,0.0,5.8,52,0.00,,---,0.00,VWS V14.01,2013-07-12 13:51:00,
2013-07-12 08:56:00,81.1,61.3,28.41,NNW,342,2.2,5.8,51,0.00,,---,0.00,VWS V14.01,2013-07-12 13:56:00,
2013-07-12 09:01:00,81.7,61.8,28.41,NW,306,2.2,3.1,51,0.00,,---,0.00,VWS V14.01,2013-07-12 14:01:00,
2013-07-12 09:07:00,82.2,62.3,28.41,South,185,3.1,5.8,51,0.00,,---,0.00,VWS V14.01,2013-07-12 14:07:00,
2013-07-12 09:12:00,82.8,62.2,28.41,SSE,148,4.0,5.8,50,0.00,,---,0.00,VWS V14.01,2013-07-12 14:12:00,
2013-07-12 09:17:00,83.1,61.4,28.41,SSE,151,3.6,6.3,48,0.00,,---,0.00,VWS V14.01,2013-07-12 14:17:00,
2013-07-12 09:22:00,83.3,61.6,28.41,SE,129,4.9,6.3,48,0.00,,---,0.00,VWS V14.01,2013-07-12 14:22:00,
2013-07-12 09:27:00,83.8,62.7,28.41,ESE,116,0.0,6.3,49,0.00,,---,0.00,VWS V14.01,2013-07-12 14:27:00,
2013-07-12 09:32:00,84.4,62.0,28.41,North,5,0.0,6.3,47,0.00,,---,0.00,VWS V14.01,2013-07-12 14:32:00,
2013-07-12 09:37:00,84.6,62.1,28.41,ESE,109,2.7,6.3,47,0.00,,---,0.00,VWS V14.01,2013-07-12 14:37:00,
2013-07-12 09:43:00,84.9,61.8,28.41,NNW,330,3.1,6.3,46,0.00,,---,0.00,VWS V14.01,2013-07-12 14:43:00,
2013-07-12 09:48:00,85.1,61.4,28.41,South,182,2.7,6.3,45,0.00,,---,0.00,VWS V14.01,2013-07-12 14:48:00,
2013-07-12 09:53:00,85.5,61.7,28.41,ESE,119,4.0,6.3,45,0.00,,---,0.00,VWS V14.01,2013-07-12 14:53:00,
2013-07-12 09:58:00,86.0,62.2,28.41,South,177,2.2,6.3,45,0.00,,---,0.00,VWS V14.01,2013-07-12 14:58:00,
2013-07-12 10:03:00,86.7,63.5,28.41,ESE,107,3.6,3.6,46,0.00,,---,0.00,VWS V14.01,2013-07-12 15:03:00,
2013-07-12 10:08:00,87.1,61.9,28.41,SE,137,0.0,3.6,43,0.00,,---,0.00,VWS V14.01,2013-07-12 15:08:00,
2013-07-12 10:13:00,87.3,62.7,28.41,East,82,3.6,5.4,44,0.00,,---,0.00,VWS V14.01,2013-07-12 15:13:00,
2013-07-12 10:18:00,87.6,63.0,28.41,South,170,3.6,6.3,44,0.00,,---,0.00,VWS V14.01,2013-07-12 15:18:00,
2013-07-12 10:24:00,88.2,63.5,28.38,SSE,154,2.2,6.3,44,0.00,,---,0.00,VWS V14.01,2013-07-12 15:24:00,
2013-07-12 10:29:00,88.9,64.2,28.38,ESE,119,2.7,6.3,44,0.00,,---,0.00,VWS V14.01,2013-07-12 15:29:00,
2013-07-12 10:34:00,89.2,62.5,28.38,South,169,4.9,7.2,41,0.00,,---,0.00,VWS V14.01,2013-07-12 15:34:00,
2013-07-12 10:39:00,89.6,62.8,28.38,ESE,112,3.6,7.2,41,0.00,,---,0.00,VWS V14.01,2013-07-12 15:39:00,
2013-07-12 10:44:00,90.0,63.1,28.38,SSW,197,2.7,7.2,41,0.00,,---,0.00,VWS V14.01,2013-07-12 15:44:00,
2013-07-12 10:49:00,90.5,63.6,28.38,SSE,162,3.6,7.2,41,0.00,,---,0.00,VWS V14.01,2013-07-12 15:49:00,
2013-07-12 10:54:00,90.7,63.1,28.41,South,175,2.7,7.2,40,0.00,,---,0.00,VWS V14.01,2013-07-12 15:54:00,
2013-07-12 10:59:00,91.0,64.1,28.41,North,0,3.1,7.2,41,0.00,,---,0.00,VWS V14.01,2013-07-12 15:59:00,
2013-07-12 11:05:00,91.2,63.5,28.41,South,174,2.2,7.2,40,0.00,,---,0.00,VWS V14.01,2013-07-12 16:05:00,
2013-07-12 11:10:00,91.8,64.7,28.38,North,0,3.6,7.2,41,0.00,,---,0.00,VWS V14.01,2013-07-12 16:10:00,
2013-07-12 11:15:00,92.1,64.3,28.38,SSE,159,3.1,7.2,40,0.00,,---,0.00,VWS V14.01,2013-07-12 16:15:00,
2013-07-12 11:20:00,92.7,64.8,28.38,SE,131,3.1,7.2,40,0.00,,---,0.00,VWS V14.01,2013-07-12 16:20:00,
2013-07-12 11:25:00,93.2,64.6,28.38,SSW,197,2.7,7.2,39,0.00,,---,0.00,VWS V14.01,2013-07-12 16:25:00,
2013-07-12 11:30:00,93.7,65.1,28.38,SSE,167,2.7,7.2,39,0.00,,---,0.00,VWS V14.01,2013-07-12 16:30:00,
2013-07-12 11:35:00,94.1,63.9,28.38,WNW,298,3.1,7.2,37,0.00,,---,0.00,VWS V14.01,2013-07-12 16:35:00,
2013-07-12 11:40:00,94.3,64.0,28.38,SSW,198,3.1,7.2,37,0.00,,---,0.00,VWS V14.01,2013-07-12 16:40:00,
2013-07-12 11:45:00,94.5,62.6,28.38,SSW,194,3.1,7.2,35,0.00,,---,0.00,VWS V14.01,2013-07-12 16:45:00,
2013-07-12 11:51:00,94.8,62.9,28.38,SE,130,2.7,7.2,35,0.00,,---,0.00,VWS V14.01,2013-07-12 16:51:00,
2013-07-12 11:56:00,95.4,62.6,28.38,SSE,158,3.6,8.1,34,0.00,,---,0.00,VWS V14.01,2013-07-12 16:56:00,
2013-07-12 12:01:00,95.5,62.7,28.38,SE,131,3.6,5.4,34,0.00,,---,0.00,VWS V14.01,2013-07-12 17:01:00,
2013-07-12 12:06:00,95.5,63.5,28.38,SSE,167,4.0,7.2,35,0.00,,---,0.00,VWS V14.01,2013-07-12 17:06:00,
2013-07-12 12:11:00,95.9,62.2,28.38,SW,216,3.1,7.6,33,0.00,,---,0.00,VWS V14.01,2013-07-12 17:11:00,
2013-07-12 12:17:00,95.9,61.3,28.38,South,187,4.9,8.3,32,0.00,,---,0.00,VWS V14.01,2013-07-12 17:17:00,
2013-07-12 12:22:00,96.1,61.5,28.38,ESE,107,0.0,8.3,32,0.00,,---,0.00,VWS V14.01,2013-07-12 17:22:00,
2013-07-12 12:28:00,96.4,62.7,28.38,ENE,71,2.7,8.3,33,0.00,,---,0.00,VWS V14.01,2013-07-12 17:28:00,
2013-07-12 12:34:00,97.0,61.4,28.38,NNE,24,3.1,8.3,31,0.00,,---,0.00,VWS V14.01,2013-07-12 17:34:00,
2013-07-12 12:39:00,97.0,61.4,28.38,ESE,122,5.8,8.3,31,0.00,,---,0.00,VWS V14.01,2013-07-12 17:39:00,
2013-07-12 12:45:00,97.2,61.5,28.38,SE,141,5.4,8.3,31,0.00,,---,0.00,VWS V14.01,2013-07-12 17:45:00,
2013-07-12 12:50:00,97.5,60.9,28.38,SSE,163,6.3,8.7,30,0.00,,---,0.00,VWS V14.01,2013-07-12 17:50:00,
2013-07-12 12:56:00,97.7,60.1,28.38,ESE,122,0.0,8.7,29,0.00,,---,0.00,VWS V14.01,2013-07-12 17:56:00,
2013-07-12 13:01:00,97.9,60.2,28.38,South,187,4.9,6.3,29,0.00,,---,0.00,VWS V14.01,2013-07-12 18:01:00,
2013-07-12 13:06:00,97.9,61.2,28.38,SSW,203,5.4,6.3,30,0.00,,---,0.00,VWS V14.01,2013-07-12 18:06:00,
2013-07-12 13:11:00,98.1,60.4,28.38,SSE,166,2.7,7.2,29,0.00,,---,0.00,VWS V14.01,2013-07-12 18:11:00,
2013-07-12 13:16:00,98.2,59.6,28.38,SE,129,2.7,8.1,28,0.00,,---,0.00,VWS V14.01,2013-07-12 18:16:00,
2013-07-12 13:21:00,98.4,59.7,28.38,ESE,118,5.8,8.1,28,0.00,,---,0.00,VWS V14.01,2013-07-12 18:21:00,
2013-07-12 13:27:00,98.8,60.0,28.35,SSE,154,2.2,8.1,28,0.00,,---,0.00,VWS V14.01,2013-07-12 18:27:00,
2013-07-12 13:33:00,99.0,60.2,28.35,ESE,103,4.9,8.7,28,0.00,,---,0.00,VWS V14.01,2013-07-12 18:33:00,
2013-07-12 13:38:00,99.0,59.2,28.35,South,184,5.8,8.7,27,0.00,,---,0.00,VWS V14.01,2013-07-12 18:38:00,
2013-07-12 13:43:00,99.1,60.3,28.35,SE,143,5.4,8.7,28,0.00,,---,0.00,VWS V14.01,2013-07-12 18:43:00,
2013-07-12 13:49:00,99.3,60.5,28.35,South,189,5.4,8.7,28,0.00,,---,0.00,VWS V14.01,2013-07-12 18:49:00,
2013-07-12 13:54:00,99.5,59.6,28.35,West,264,3.6,8.7,27,0.00,,---,0.00,VWS V14.01,2013-07-12 18:54:00,
2013-07-12 13:59:00,99.7,59.8,28.35,WNW,284,2.7,8.7,27,0.00,,---,0.00,VWS V14.01,2013-07-12 18:59:00,
2013-07-12 14:05:00,100.0,60.1,28.35,North,0,3.6,7.6,27,0.00,,---,0.00,VWS V14.01,2013-07-12 19:05:00,
2013-07-12 14:11:00,100.0,59.0,28.35,WSW,237,2.7,7.6,26,0.00,,---,0.00,VWS V14.01,2013-07-12 19:11:00,
2013-07-12 14:16:00,100.0,59.0,28.35,WNW,297,8.3,8.3,26,0.00,,---,0.00,VWS V14.01,2013-07-12 19:16:00,
2013-07-12 14:22:00,100.0,60.1,28.35,SE,131,4.0,8.3,27,0.00,,---,0.00,VWS V14.01,2013-07-12 19:22:00,
2013-07-12 14:27:00,100.2,60.2,28.35,SE,142,3.6,8.3,27,0.00,,---,0.00,VWS V14.01,2013-07-12 19:27:00,
2013-07-12 14:32:00,100.4,59.3,28.35,SE,125,5.8,8.3,26,0.00,,---,0.00,VWS V14.01,2013-07-12 19:32:00,
2013-07-12 14:37:00,100.8,59.6,28.35,East,82,2.7,8.3,26,0.00,,---,0.00,VWS V14.01,2013-07-12 19:37:00,
2013-07-12 14:43:00,101.1,59.9,28.35,SSE,151,2.7,8.3,26,0.00,,---,0.00,VWS V14.01,2013-07-12 19:43:00,
2013-07-12 14:48:00,101.1,59.9,28.35,East,101,2.7,8.3,26,0.00,,---,0.00,VWS V14.01,2013-07-12 19:48:00,
2013-07-12 14:53:00,101.1,59.9,28.35,South,181,3.6,8.3,26,0.00,,---,0.00,VWS V14.01,2013-07-12 19:53:00,
2013-07-12 14:58:00,101.1,59.9,28.35,SSE,163,2.7,8.3,26,0.00,,---,0.00,VWS V14.01,2013-07-12 19:58:00,
2013-07-12 15:03:00,101.1,58.8,28.35,WSW,237,5.8,8.1,25,0.00,,---,0.00,VWS V14.01,2013-07-12 20:03:00,
2013-07-12 15:08:00,100.8,59.6,28.35,SE,137,3.6,8.1,26,0.00,,---,0.00,VWS V14.01,2013-07-12 20:08:00,
2013-07-12 15:13:00,100.6,58.4,28.35,South,187,4.9,8.1,25,0.00,,---,0.00,VWS V14.01,2013-07-12 20:13:00,
2013-07-12 15:19:00,100.6,58.4,28.35,South,180,4.0,8.1,25,0.00,,---,0.00,VWS V14.01,2013-07-12 20:19:00,
2013-07-12 15:24:00,100.4,58.2,28.32,South,176,4.0,8.3,25,0.00,,---,0.00,VWS V14.01,2013-07-12 20:24:00,
2013-07-12 15:29:00,100.2,59.2,28.32,SE,132,4.9,8.3,26,0.00,,---,0.00,VWS V14.01,2013-07-12 20:29:00,
2013-07-12 15:35:00,100.0,59.0,28.32,SE,124,5.4,8.7,26,0.00,,---,0.00,VWS V14.01,2013-07-12 20:35:00,
2013-07-12 15:40:00,100.0,59.0,28.32,SE,137,2.2,8.7,26,0.00,,---,0.00,VWS V14.01,2013-07-12 20:40:00,
2013-07-12 15:45:00,99.7,58.7,28.32,NE,48,3.1,8.7,26,0.00,,---,0.00,VWS V14.01,2013-07-12 20:45:00,
2013-07-12 15:51:00,99.5,58.6,28.32,SSW,213,3.1,8.7,26,0.00,,---,0.00,VWS V14.01,2013-07-12 20:51:00,
2013-07-12 15:56:00,99.5,58.6,28.32,SSW,196,4.0,8.7,26,0.00,,---,0.00,VWS V14.01,2013-07-12 20:56:00,
2013-07-12 16:01:00,99.3,58.4,28.32,SSW,192,3.6,4.5,26,0.00,,---,0.00,VWS V14.01,2013-07-12 21:01:00,
2013-07-12 16:06:00,99.1,58.3,28.32,ESE,122,5.4,6.7,26,0.00,,---,0.00,VWS V14.01,2013-07-12 21:06:00,
2013-07-12 16:12:00,99.1,58.3,28.32,South,171,3.1,6.7,26,0.00,,---,0.00,VWS V14.01,2013-07-12 21:12:00,
2013-07-12 16:17:00,99.0,58.1,28.32,South,182,2.2,7.6,26,0.00,,---,0.00,VWS V14.01,2013-07-12 21:17:00,
2013-07-12 16:22:00,99.0,58.1,28.32,NNE,29,4.0,8.7,26,0.00,,---,0.00,VWS V14.01,2013-07-12 21:22:00,
2013-07-12 16:27:00,99.0,58.1,28.32,South,176,7.2,8.7,26,0.00,,---,0.00,VWS V14.01,2013-07-12 21:27:00,
2013-07-12 16:33:00,99.0,58.1,28.32,SE,131,3.6,8.7,26,0.00,,---,0.00,VWS V14.01,2013-07-12 21:33:00,
2013-07-12 16:38:00,99.0,58.1,28.32,SE,131,4.0,8.7,26,0.00,,---,0.00,VWS V14.01,2013-07-12 21:38:00,
2013-07-12 16:43:00,99.0,58.1,28.32,ESE,120,2.7,8.7,26,0.00,,---,0.00,VWS V14.01,2013-07-12 21:43:00,
2013-07-12 16:48:00,99.0,58.1,28.32,SE,143,3.1,8.7,26,0.00,,---,0.00,VWS V14.01,2013-07-12 21:48:00,
2013-07-12 16:53:00,98.8,58.0,28.32,ENE,61,4.9,8.7,26,0.00,,---,0.00,VWS V14.01,2013-07-12 21:53:00,
2013-07-12 16:58:00,98.6,57.8,28.32,SSE,157,3.1,8.7,26,0.00,,---,0.00,VWS V14.01,2013-07-12 21:58:00,
2013-07-12 17:03:00,98.6,57.8,28.32,SSE,150,5.4,8.3,26,0.00,,---,0.00,VWS V14.01,2013-07-12 22:03:00,
2013-07-12 17:10:00,98.4,57.7,28.32,SSE,160,2.2,8.3,26,0.00,,---,0.00,VWS V14.01,2013-07-12 22:10:00,
2013-07-12 17:15:00,98.4,57.7,28.32,North,7,6.3,8.3,26,0.00,,---,0.00,VWS V14.01,2013-07-12 22:15:00,
2013-07-12 17:20:00,98.4,57.7,28.32,SSE,168,4.0,8.3,26,0.00,,---,0.00,VWS V14.01,2013-07-12 22:20:00,
2013-07-12 17:25:00,98.4,57.7,28.32,ENE,58,2.7,8.3,26,0.00,,---,0.00,VWS V14.01,2013-07-12 22:25:00,
2013-07-12 17:30:00,98.2,57.5,28.32,SE,136,5.4,8.3,26,0.00,,---,0.00,VWS V14.01,2013-07-12 22:30:00,
2013-07-12 17:36:00,98.2,57.5,28.32,SW,220,2.7,8.3,26,0.00,,---,0.00,VWS V14.01,2013-07-12 22:36:00,
2013-07-12 17:41:00,98.2,57.5,28.32,SSE,159,5.4,8.3,26,0.00,,---,0.00,VWS V14.01,2013-07-12 22:41:00,
2013-07-12 17:46:00,98.2,57.5,28.32,NNE,18,2.7,8.3,26,0.00,,---,0.00,VWS V14.01,2013-07-12 22:46:00,
2013-07-12 17:53:00,98.2,57.5,28.32,SSE,160,3.1,8.7,26,0.00,,---,0.00,VWS V14.01,2013-07-12 22:53:00,
2013-07-12 17:59:00,98.1,57.4,28.32,ESE,113,2.2,8.7,26,0.00,,---,0.00,VWS V14.01,2013-07-12 22:59:00,
2013-07-12 18:04:00,98.1,57.4,28.32,SSE,161,4.9,6.3,26,0.00,,---,0.00,VWS V14.01,2013-07-12 23:04:00,
2013-07-12 18:09:00,97.9,57.2,28.32,NE,45,3.1,6.3,26,0.00,,---,0.00,VWS V14.01,2013-07-12 23:09:00,
2013-07-12 18:14:00,97.9,57.2,28.32,NW,307,3.1,8.1,26,0.00,,---,0.00,VWS V14.01,2013-07-12 23:14:00,
2013-07-12 18:19:00,97.9,57.2,28.32,ESE,123,3.6,8.1,26,0.00,,---,0.00,VWS V14.01,2013-07-12 23:19:00,
2013-07-12 18:24:00,97.7,57.0,28.32,SSE,164,4.0,8.1,26,0.00,,---,0.00,VWS V14.01,2013-07-12 23:24:00,
2013-07-12 18:29:00,97.5,56.9,28.32,South,188,2.2,8.1,26,0.00,,---,0.00,VWS V14.01,2013-07-12 23:29:00,
2013-07-12 18:35:00,97.5,56.9,28.32,SSE,160,3.1,8.1,26,0.00,,---,0.00,VWS V14.01,2013-07-12 23:35:00,
2013-07-12 18:41:00,97.5,56.9,28.32,SW,216,2.7,8.1,26,0.00,,---,0.00,VWS V14.01,2013-07-12 23:41:00,
2013-07-12 18:47:00,97.5,56.9,28.32,SSW,206,2.7,8.1,26,0.00,,---,0.00,VWS V14.01,2013-07-12 23:47:00,
2013-07-12 18:52:00,97.3,57.8,28.32,East,100,2.2,8.1,27,0.00,,---,0.00,VWS V14.01,2013-07-12 23:52:00,
2013-07-12 18:58:00,97.2,57.6,28.32,SSE,164,2.7,8.1,27,0.00,,---,0.00,VWS V14.01,2013-07-12 23:58:00,
2013-07-12 19:03:00,97.0,57.5,28.32,East,100,2.7,6.3,27,0.00,,---,0.00,VWS V14.01,2013-07-13 00:03:00,
2013-07-12 19:08:00,96.8,57.3,28.32,SSW,199,5.8,6.3,27,0.00,,---,0.00,VWS V14.01,2013-07-13 00:08:00,
2013-07-12 19:14:00,96.6,58.2,28.32,SE,127,2.2,8.1,28,0.00,,---,0.00,VWS V14.01,2013-07-13 00:14:00,
2013-07-12 19:19:00,96.4,58.0,28.32,SE,134,3.6,8.1,28,0.00,,---,0.00,VWS V14.01,2013-07-13 00:19:00,
2013-07-12 19:25:00,96.3,57.9,28.32,NE,50,2.7,10.1,28,0.00,,---,0.00,VWS V14.01,2013-07-13 00:25:00,
2013-07-12 19:31:00,95.9,58.6,28.32,SSE,157,0.0,10.1,29,0.00,,---,0.00,VWS V14.01,2013-07-13 00:31:00,
2013-07-12 19:37:00,95.7,58.4,28.32,South,175,5.4,10.1,29,0.00,,---,0.00,VWS V14.01,2013-07-13 00:37:00,
2013-07-12 19:42:00,95.4,58.1,28.32,SE,127,2.7,10.1,29,0.00,,---,0.00,VWS V14.01,2013-07-13 00:42:00,
2013-07-12 19:47:00,95.2,58.9,28.32,East,97,4.0,10.1,30,0.00,,---,0.00,VWS V14.01,2013-07-13 00:47:00,
2013-07-12 19:52:00,94.8,59.5,28.32,SE,137,4.0,10.1,31,0.00,,---,0.00,VWS V14.01,2013-07-13 00:52:00,
2013-07-12 19:57:00,94.6,60.2,28.32,East,92,2.7,10.1,32,0.00,,---,0.00,VWS V14.01,2013-07-13 00:57:00,
2013-07-12 20:03:00,94.3,59.9,28.32,ESE,109,2.2,6.3,32,0.00,,---,0.00,VWS V14.01,2013-07-13 01:03:00,
2013-07-12 20:08:00,93.9,60.5,28.32,SW,215,3.6,10.1,33,0.00,,---,0.00,VWS V14.01,2013-07-13 01:08:00,
2013-07-12 20:14:00,93.6,61.0,28.32,SE,145,3.6,10.1,34,0.00,,---,0.00,VWS V14.01,2013-07-13 01:14:00,
2013-07-12 20:19:00,93.2,60.7,28.32,SE,132,2.7,10.1,34,0.00,,---,0.00,VWS V14.01,2013-07-13 01:19:00,
2013-07-12 20:24:00,92.8,61.2,28.32,NE,49,2.7,10.1,35,0.00,,---,0.00,VWS V14.01,2013-07-13 01:24:00,
2013-07-12 20:30:00,92.5,61.7,28.32,SW,218,3.1,10.1,36,0.00,,---,0.00,VWS V14.01,2013-07-13 01:30:00,
2013-07-12 20:35:00,92.1,62.1,28.32,South,186,4.0,10.1,37,0.00,,---,0.00,VWS V14.01,2013-07-13 01:35:00,
2013-07-12 20:40:00,91.9,62.0,28.32,NNE,14,3.1,10.1,37,0.00,,---,0.00,VWS V14.01,2013-07-13 01:40:00,
2013-07-12 20:45:00,91.6,61.7,28.32,West,281,0.0,10.1,37,0.00,,---,0.00,VWS V14.01,2013-07-13 01:45:00,
2013-07-12 20:50:00,91.4,61.5,28.32,SSE,167,2.7,10.1,37,0.00,,---,0.00,VWS V14.01,2013-07-13 01:50:00,
2013-07-12 20:56:00,91.0,61.9,28.32,ENE,62,4.0,10.1,38,0.00,,---,0.00,VWS V14.01,2013-07-13 01:56:00,
2013-07-12 21:01:00,90.7,61.6,28.32,SSE,157,5.8,5.8,38,0.00,,---,0.00,VWS V14.01,2013-07-13 02:01:00,
2013-07-12 21:06:00,90.5,62.2,28.32,SSW,210,4.0,5.8,39,0.00,,---,0.00,VWS V14.01,2013-07-13 02:06:00,
2013-07-12 21:13:00,90.1,61.9,28.32,SSE,167,2.2,8.7,39,0.00,,---,0.00,VWS V14.01,2013-07-13 02:13:00,
2013-07-12 21:18:00,89.8,61.5,28.32,SSE,147,6.3,8.7,39,0.00,,---,0.00,VWS V14.01,2013-07-13 02:18:00,
2013-07-12 21:23:00,89.6,61.4,28.32,SSE,163,3.1,8.7,39,0.00,,---,0.00,VWS V14.01,2013-07-13 02:23:00,
2013-07-12 21:29:00,89.4,61.9,28.32,West,265,3.6,8.7,40,0.00,,---,0.00,VWS V14.01,2013-07-13 02:29:00,
2013-07-12 21:34:00,89.2,61.8,28.32,SE,124,5.4,8.7,40,0.00,,---,0.00,VWS V14.01,2013-07-13 02:34:00,
2013-07-12 21:40:00,88.9,62.2,28.32,ESE,122,3.1,8.7,41,0.00,,---,0.00,VWS V14.01,2013-07-13 02:40:00,
2013-07-12 21:45:00,88.7,62.0,28.32,SE,136,2.7,8.7,41,0.00,,---,0.00,VWS V14.01,2013-07-13 02:45:00,
2013-07-12 21:50:00,88.5,62.5,28.32,ESE,123,3.6,8.7,42,0.00,,---,0.00,VWS V14.01,2013-07-13 02:50:00,
2013-07-12 21:55:00,88.2,62.2,28.35,SE,145,4.0,8.7,42,0.00,,---,0.00,VWS V14.01,2013-07-13 02:55:00,
2013-07-12 22:00:00,88.0,62.0,28.35,SE,134,2.2,3.1,42,0.00,,---,0.00,VWS V14.01,2013-07-13 03:00:00,
2013-07-12 22:05:00,87.8,62.5,28.35,SE,137,3.1,5.8,43,0.00,,---,0.00,VWS V14.01,2013-07-13 03:05:00,
2013-07-12 22:12:00,87.4,62.2,28.35,SSE,153,2.7,5.8,43,0.00,,---,0.00,VWS V14.01,2013-07-13 03:12:00,
2013-07-12 22:17:00,87.3,62.7,28.35,South,183,2.7,5.8,44,0.00,,---,0.00,VWS V14.01,2013-07-13 03:17:00,
2013-07-12 22:22:00,87.1,62.5,28.35,South,175,2.7,5.8,44,0.00,,---,0.00,VWS V14.01,2013-07-13 03:22:00,
2013-07-12 22:27:00,86.9,63.0,28.35,SE,140,3.6,5.8,45,0.00,,---,0.00,VWS V14.01,2013-07-13 03:27:00,
2013-07-12 22:32:00,86.7,62.9,28.35,SSE,159,2.7,5.8,45,0.00,,---,0.00,VWS V14.01,2013-07-13 03:32:00,
2013-07-12 22:38:00,86.4,62.5,28.35,SSE,158,2.2,5.8,45,0.00,,---,0.00,VWS V14.01,2013-07-13 03:38:00,
2013-07-12 22:43:00,86.2,63.0,28.35,SSE,164,3.1,5.8,46,0.00,,---,0.00,VWS V14.01,2013-07-13 03:43:00,
2013-07-12 22:48:00,86.0,62.8,28.35,South,169,0.0,5.8,46,0.00,,---,0.00,VWS V14.01,2013-07-13 03:48:00,
2013-07-12 22:53:00,85.8,63.3,28.35,SSE,148,4.0,5.8,47,0.00,,---,0.00,VWS V14.01,2013-07-13 03:53:00,
2013-07-12 22:58:00,85.6,63.1,28.35,SE,146,0.0,5.8,47,0.00,,---,0.00,VWS V14.01,2013-07-13 03:58:00,
2013-07-12 23:01:00,85.6,63.1,28.35,South,171,0.0,0.0,47,0.00,,---,0.00,VWS V14.01,2013-07-13 04:01:00,
2013-07-12 23:02:00,85.5,63.0,28.35,South,171,0.0,0.0,47,0.00,,---,0.00,VWS V14.01,2013-07-13 04:02:00,
2013-07-12 23:03:00,85.5,63.0,28.35,South,171,0.0,0.0,47,0.00,,---,0.00,VWS V14.01,2013-07-13 04:03:00,
2013-07-12 23:08:00,85.3,63.4,28.35,South,190,2.7,5.8,48,0.00,,---,0.00,VWS V14.01,2013-07-13 04:08:00,
2013-07-12 23:13:00,85.1,63.2,28.35,ESE,121,0.0,5.8,48,0.00,,---,0.00,VWS V14.01,2013-07-13 04:13:00,
2013-07-12 23:18:00,84.7,63.5,28.35,SSE,168,4.0,5.8,49,0.00,,---,0.00,VWS V14.01,2013-07-13 04:18:00,
2013-07-12 23:23:00,84.6,63.3,28.38,SE,134,2.7,5.8,49,0.00,,---,0.00,VWS V14.01,2013-07-13 04:23:00,
2013-07-12 23:28:00,84.4,63.2,28.38,SSE,156,2.7,5.8,49,0.00,,---,0.00,VWS V14.01,2013-07-13 04:28:00,
2013-07-12 23:34:00,84.4,63.2,28.38,SSW,193,2.7,5.8,49,0.00,,---,0.00,VWS V14.01,2013-07-13 04:34:00,
2013-07-12 23:39:00,84.2,63.6,28.38,SE,145,2.7,5.8,50,0.00,,---,0.00,VWS V14.01,2013-07-13 04:39:00,
2013-07-12 23:44:00,84.0,64.0,28.38,SE,143,4.0,5.8,51,0.00,,---,0.00,VWS V14.01,2013-07-13 04:44:00,
2013-07-12 23:49:00,83.8,63.8,28.38,SE,125,0.0,5.8,51,0.00,,---,0.00,VWS V14.01,2013-07-13 04:49:00,
2013-07-12 23:54:00,83.8,64.3,28.35,SE,128,0.0,5.8,52,0.00,,---,0.00,VWS V14.01,2013-07-13 04:54:00,
2013-07-12 23:59:00,83.8,64.3,28.35,SSE,166,3.1,5.8,52,0.00,,---,0.00,VWS V14.01,2013-07-13 04:59:00,